Stations météo

réclame
Mon MeteoGroup
Cardinham, Grande-Bretagne (3823): Température de l'air & dewpoint: 14.11.2018 11:00:00 - 20.11.2018 11:00:00 (GMT)Cardinham, Grande-Bretagne (3823): Température de l'air -20cm & Température de l'air -100cm: 14.11.2018 11:00:00 - 20.11.2018 11:00:00 (GMT)Cardinham, Grande-Bretagne (3823): Vitesse du vent & gusts: 14.11.2018 11:00:00 - 20.11.2018 11:00:00 (GMT)Cardinham, Grande-Bretagne (3823): Direction du vent: 14.11.2018 11:00:00 - 20.11.2018 11:00:00 (GMT)Cardinham, Grande-Bretagne (3823): reduced air pressure: 14.11.2018 11:00:00 - 20.11.2018 11:00:00 (GMT)Cardinham, Grande-Bretagne (3823): visibility: 14.11.2018 11:00:00 - 20.11.2018 11:00:00 (GMT)Cardinham, Grande-Bretagne (3823): Quantités de précipitations: 14.11.2018 11:00:00 - 20.11.2018 11:00:00 (GMT)
Date & Time tt [°C] td [°C] tt -20cm [°C] tt -100cm [°C] ff [km/h] ff [knt] fx [km/h] fx [knt] dd ppp [hPa] vv [km] rr [mm]
20.11.2018 11:00:00 5,4 0,4 - - 35 19 59 32 ENE 1007,8 30 0,0
20.11.2018 10:00:00 4,6 0,1 - - 34 18 52 28 ENE 1008,6 35 0,0
20.11.2018 09:00:00 3,3 -0,1 10,2 11,5 26 14 - - NE 1009,6 29 0,0
20.11.2018 08:00:00 3,2 -0,2 - - 26 14 - - NE 1009,9 40 0,0
20.11.2018 07:00:00 2,8 0,0 - - 22 12 - - NE 1010,2 40 0,0
20.11.2018 06:00:00 2,5 0,5 - - 29 16 - - NE 1010,5 30 0,0
20.11.2018 05:00:00 2,0 0,3 - - 28 15 - - NE 1011,0 27 0,0
20.11.2018 04:00:00 2,0 0,5 - - 21 11 - - NE 1011,7 27 0,0
20.11.2018 03:00:00 2,5 0,6 - - 22 12 - - NE 1012,2 35 0,0
20.11.2018 02:00:00 3,1 0,9 - - 26 14 - - NE 1012,6 40 0,0
20.11.2018 01:00:00 4,0 1,6 - - 22 12 - - NE 1013,2 35 0,0
20.11.2018 00:00:00 3,3 1,4 - - 18 10 - - NE 1013,6 40 0,0
19.11.2018 23:00:00 3,3 1,8 - - 24 13 - - NE 1014,3 29 0,0
19.11.2018 22:00:00 3,1 0,9 - - 22 12 - - NE 1014,9 50 0,0
19.11.2018 21:00:00 3,5 1,0 - - 26 14 - - NE 1015,1 45 0,0
19.11.2018 20:00:00 4,0 1,5 - - 24 13 - - ENE 1015,3 45 0,0
19.11.2018 19:00:00 4,0 1,7 - - 16 9 - - ENE 1015,9 50 0,0
19.11.2018 18:00:00 4,4 1,7 - - 15 8 - - ENE 1016,1 50 0,0
19.11.2018 17:00:00 4,8 1,7 - - 15 8 - - ENE 1016,1 40 0,0
19.11.2018 16:00:00 5,9 1,5 - - 26 14 - - E 1016,3 40 0,0
19.11.2018 15:00:00 6,6 1,1 - - 26 14 50 27 ENE 1016,9 45 0,0
19.11.2018 14:00:00 7,1 1,4 - - 34 18 54 29 E 1017,2 30 0,0
19.11.2018 13:00:00 6,3 1,4 - - 34 18 50 27 E 1018,0 30 0,0
19.11.2018 12:00:00 6,1 1,8 - - 29 16 - - E 1018,9 26 0,0
19.11.2018 11:00:00 5,8 1,8 - - 29 16 - - E 1019,4 28 0,0
19.11.2018 10:00:00 5,2 1,8 - - 34 18 52 28 E 1019,5 28 0,0
19.11.2018 09:00:00 4,3 1,8 10,9 11,7 41 22 54 29 ENE 1019,3 19 0,0
19.11.2018 08:00:00 3,1 1,0 - - 34 18 46 25 ENE 1019,5 15 0,0
19.11.2018 07:00:00 3,2 0,4 - - 26 14 - - ENE 1019,8 25 0,0
19.11.2018 06:00:00 3,5 0,2 - - 31 17 46 25 ENE 1019,6 30 0,0
19.11.2018 05:00:00 4,1 -0,1 - - 31 17 46 25 E 1019,6 35 0,0
19.11.2018 04:00:00 4,7 0,4 - - 34 18 - - E 1019,9 30 0,0
19.11.2018 03:00:00 4,6 0,1 - - 18 10 - - E 1020,3 35 0,0
19.11.2018 02:00:00 5,0 0,0 - - 26 14 - - E 1020,7 35 0,0
19.11.2018 01:00:00 5,3 0,1 - - 26 14 - - E 1021,0 45 0,0
19.11.2018 00:00:00 5,6 0,6 - - 31 17 - - E 1021,1 35 0,0
18.11.2018 23:00:00 6,3 0,7 - - 34 18 52 28 E 1020,9 50 0,0
18.11.2018 22:00:00 6,9 0,7 - - 39 21 54 29 E 1020,9 30 0,0
18.11.2018 21:00:00 6,9 0,7 - - 35 19 54 29 E 1020,9 40 0,0
18.11.2018 20:00:00 6,9 2,0 - - 31 17 - - E 1021,6 35 0,0
18.11.2018 19:00:00 6,8 2,5 - - 29 16 - - E 1021,7 30 0,0
18.11.2018 18:00:00 7,3 2,3 - - 29 16 - - E 1022,0 27 0,0
18.11.2018 17:00:00 7,5 1,7 - - 28 15 - - E 1021,9 30 0,0
18.11.2018 16:00:00 8,4 1,3 - - 24 13 - - E 1022,0 35 0,0
18.11.2018 15:00:00 9,6 2,7 - - 26 14 - - E 1021,9 30 0,0
18.11.2018 14:00:00 9,7 3,6 - - 31 17 52 28 ESE 1022,2 30 0,0
18.11.2018 13:00:00 10,0 4,7 - - 28 15 - - ESE 1022,4 28 0,0
18.11.2018 12:00:00 9,2 4,6 - - 29 16 - - E 1022,9 22 0,0
18.11.2018 11:00:00 8,6 4,9 - - 31 17 52 28 E 1023,2 13 0,0
18.11.2018 10:00:00 8,2 5,4 - - 26 14 - - ESE 1023,1 16 0,0
18.11.2018 09:00:00 7,3 5,5 11,2 11,7 26 14 46 25 ESE 1023,2 10 0,0
18.11.2018 08:00:00 7,1 5,3 - - 29 16 50 27 E 1023,0 12 0,0
18.11.2018 07:00:00 6,7 5,0 - - 28 15 48 26 E 1022,3 11 0,0
18.11.2018 06:00:00 7,1 5,6 - - 29 16 50 27 ESE 1021,6 11 0,0
18.11.2018 05:00:00 7,5 5,7 - - 39 21 57 31 E 1021,3 12 0,0
18.11.2018 04:00:00 7,5 5,8 - - 39 21 63 34 E 1020,9 11 0,0
18.11.2018 03:00:00 8,0 6,1 - - 34 18 52 28 ESE 1021,0 10 0,0
18.11.2018 02:00:00 8,0 5,3 - - 29 16 48 26 ESE 1021,2 18 0,0
18.11.2018 01:00:00 7,9 5,2 - - 29 16 55 30 ESE 1021,5 17 0,0
18.11.2018 00:00:00 8,2 5,4 - - 41 22 63 34 ESE 1021,3 18 0,0
17.11.2018 23:00:00 8,4 6,1 - - 37 20 63 34 ESE 1021,2 15 0,0
17.11.2018 22:00:00 8,5 6,2 - - 41 22 63 34 ESE 1020,9 12 0,0
17.11.2018 21:00:00 7,5 5,4 - - 37 20 52 28 ESE 1020,8 11 0,0
17.11.2018 20:00:00 7,2 4,8 - - 37 20 54 29 ESE 1020,3 12 0,0
17.11.2018 19:00:00 7,6 5,5 - - 34 18 59 32 ESE 1020,2 12 0,0
17.11.2018 18:00:00 7,8 5,5 - - 39 21 57 31 ESE 1020,0 12 0,0
17.11.2018 17:00:00 7,7 4,7 - - 34 18 - - E 1020,4 13 0,0
17.11.2018 16:00:00 8,4 5,6 - - 31 17 48 26 ESE 1020,4 12 0,0
17.11.2018 15:00:00 9,5 6,4 - - 31 17 54 29 E 1020,6 12 0,0
17.11.2018 14:00:00 9,8 7,1 - - 31 17 48 26 ESE 1021,0 13 0,0
17.11.2018 13:00:00 9,6 7,1 - - 29 16 52 28 ESE 1021,7 10 0,0
17.11.2018 12:00:00 9,3 7,5 - - 29 16 52 28 ESE 1021,8 11 0,0
17.11.2018 11:00:00 9,2 8,4 - - 35 19 54 29 ESE 1021,9 10 0,0
17.11.2018 10:00:00 9,4 8,9 - - 34 18 54 29 ESE 1022,2 8 0,0
17.11.2018 09:00:00 10,2 9,6 11,2 11,7 35 19 52 28 ESE 1022,1 9 0,0
17.11.2018 08:00:00 10,5 9,6 - - 28 15 46 25 ESE 1022,1 11 0,0
17.11.2018 07:00:00 10,7 9,8 - - 29 16 46 25 ESE 1021,7 10 0,0
17.11.2018 06:00:00 11,0 10,0 - - 29 16 48 26 ESE 1021,3 9 0,0
17.11.2018 05:00:00 11,0 9,8 - - 37 20 48 26 ESE 1021,0 11 0,0
17.11.2018 04:00:00 11,0 10,2 - - 29 16 48 26 ESE 1021,3 9 0,0
17.11.2018 03:00:00 11,1 10,4 - - 31 17 46 25 ESE 1021,5 6 0,0
17.11.2018 02:00:00 11,2 10,6 - - 31 17 - - ESE 1021,7 6 0,0
17.11.2018 01:00:00 11,2 10,8 - - 26 14 - - ESE 1021,7 5 0,0
17.11.2018 00:00:00 11,3 11,1 - - 26 14 - - ESE 1021,4 2,8 0,0
16.11.2018 23:00:00 11,4 11,1 - - 29 16 48 26 ESE 1021,3 3,1 0,0
16.11.2018 22:00:00 11,5 11,2 - - 34 18 52 28 ESE 1021,0 4,4 0,0
16.11.2018 21:00:00 11,5 11,5 - - 28 15 46 25 ESE 1020,8 2,1 0,0
16.11.2018 20:00:00 11,6 11,4 - - 31 17 52 28 ESE 1020,7 4,6 0,0
16.11.2018 19:00:00 11,6 11,5 - - 31 17 48 26 ESE 1020,8 2,8 0,0
16.11.2018 18:00:00 11,5 11,5 - - 31 17 - - ESE 1020,7 3,1 0,0
16.11.2018 17:00:00 11,6 11,6 - - 31 17 46 25 ESE 1020,6 0,2 0,0
16.11.2018 16:00:00 11,8 11,8 - - 29 16 46 25 ESE 1020,4 0,1 0,0
16.11.2018 15:00:00 12,1 12,0 - - 31 17 48 26 SE 1020,7 4,0 0,0
16.11.2018 14:00:00 12,2 11,9 - - 29 16 48 26 SE 1020,8 3,0 0,0
16.11.2018 13:00:00 12,3 11,9 - - 29 16 50 27 SE 1021,0 4,8 0,0
16.11.2018 12:00:00 11,9 11,3 - - 34 18 46 25 SE 1021,5 5 0,0
16.11.2018 11:00:00 11,9 11,4 - - 31 17 - - SE 1021,8 5 0,0
16.11.2018 10:00:00 12,1 11,7 - - 22 12 - - SE 1021,8 4,3 0,0
16.11.2018 09:00:00 11,8 11,8 11,0 11,7 22 12 - - SE 1021,8 2,6 0,0
16.11.2018 08:00:00 11,8 11,8 - - 21 11 - - SE 1021,4 0,4 0,0
16.11.2018 07:00:00 11,3 11,3 - - 18 10 - - SE 1021,0 1,7 0,0
16.11.2018 06:00:00 11,3 11,3 - - 21 11 - - SE 1020,3 0,7 0,0
16.11.2018 05:00:00 11,1 11,1 - - 18 10 - - SE 1020,1 0,2 0,0
16.11.2018 04:00:00 11,0 11,0 - - 18 10 - - SE 1020,0 0,2 0,0
16.11.2018 03:00:00 10,9 10,9 - - 15 8 - - SE 1020,0 1,0 0,2
16.11.2018 02:00:00 10,9 10,9 - - 15 8 - - SSE 1020,2 1,7 0,0
16.11.2018 01:00:00 11,1 11,1 - - 11 6 - - SSE 1020,6 0,2 0,0
16.11.2018 00:00:00 11,2 11,2 - - 9 5 - - SSE 1020,6 0,4 0,0
15.11.2018 23:00:00 11,0 11,0 - - 11 6 - - SSE 1019,8 0,4 0,2
15.11.2018 22:00:00 10,8 10,8 - - 9 5 - - SSE 1019,7 0,2 0,0
15.11.2018 21:00:00 10,7 10,7 - - 13 7 - - SSE 1019,2 2,6 0,2
15.11.2018 20:00:00 10,8 10,8 - - 16 9 - - S 1018,7 0,1 0,0
15.11.2018 19:00:00 10,8 10,8 - - 15 8 - - S 1018,0 0,2 0,0
15.11.2018 18:00:00 11,2 11,2 - - 16 9 - - S 1017,7 0,1 0,2
15.11.2018 17:00:00 11,3 11,3 - - 15 8 - - S 1017,6 0,1 0,0
15.11.2018 16:00:00 11,4 11,4 - - 22 12 - - SSE 1016,9 3,5 0,0
15.11.2018 15:00:00 11,4 11,4 - - 21 11 - - S 1017,1 1,0 0,2
15.11.2018 14:00:00 11,7 11,7 - - 22 12 - - SSE 1017,1 0,1 0,0
15.11.2018 13:00:00 11,0 10,7 - - 31 17 - - SE 1016,9 2,1 0,0
15.11.2018 12:00:00 12,0 11,2 - - 31 17 46 25 SE 1017,1 10 0,0
15.11.2018 11:00:00 11,7 10,6 - - 29 16 - - SE 1017,4 12 0,0
15.11.2018 10:00:00 12,0 11,1 - - 28 15 - - SE 1017,3 10 0,0
15.11.2018 09:00:00 11,2 11,0 10,9 11,7 24 13 - - SE 1017,5 5 0,0
15.11.2018 08:00:00 10,5 10,4 - - 21 11 - - SE 1017,3 5 0,0
15.11.2018 07:00:00 10,3 10,2 - - 16 9 - - SE 1017,0 4,1 0,0
15.11.2018 06:00:00 10,5 10,2 - - 21 11 - - SE 1017,0 6 0,0
15.11.2018 05:00:00 10,5 10,2 - - 18 10 - - SE 1017,1 7 0,0
15.11.2018 04:00:00 10,3 9,7 - - 21 11 - - SSE 1017,1 9 0,0
15.11.2018 03:00:00 10,5 9,7 - - 22 12 - - SSE 1017,3 12 0,0
15.11.2018 02:00:00 10,9 9,9 - - 21 11 - - S 1017,6 14 0,0
15.11.2018 01:00:00 11,1 10,2 - - 21 11 - - SSE 1017,6 15 0,0
15.11.2018 00:00:00 11,1 10,5 - - 24 13 - - SSE 1017,7 12 0,0
14.11.2018 23:00:00 11,1 10,2 - - 26 14 - - S 1017,7 16 0,0
14.11.2018 22:00:00 11,1 10,4 - - 24 13 - - SSE 1017,9 14 0,0
14.11.2018 21:00:00 11,1 10,3 - - 26 14 - - SSE 1018,0 15 0,0
14.11.2018 20:00:00 11,2 10,1 - - 28 15 - - SSE 1018,0 16 0,0
14.11.2018 19:00:00 11,0 10,1 - - 28 15 - - SSE 1018,0 16 0,0
14.11.2018 18:00:00 11,1 10,0 - - 28 15 46 25 SSE 1017,7 22 0,0
14.11.2018 17:00:00 10,8 9,9 - - 28 15 - - SSE 1017,5 15 0,0
14.11.2018 16:00:00 11,4 9,9 - - 26 14 - - SSE 1017,7 20 0,0
14.11.2018 15:00:00 11,6 10,2 - - 28 15 - - S 1017,9 17 0,0
14.11.2018 14:00:00 11,7 10,2 - - 26 14 55 30 S 1018,2 20 0,0
14.11.2018 13:00:00 11,9 10,1 - - 34 18 59 32 S 1018,3 25 0,0
14.11.2018 12:00:00 11,9 9,7 - - 37 20 55 30 SSE 1018,6 22 0,0
14.11.2018 11:00:00 11,7 10,1 - - 28 15 50 27 S 1019,3 21 0,0

tt = Température de l'air
td = dewpoint
tt -20cm = Température de l'air -20cm
tt -100cm = Température de l'air -100cm
ff = Vitesse du vent
fx = gusts
dd = Direction du vent
ppp = reduced air pressure
vv = visibility
rr = Quantités de précipitations

stations d'obs. à proximité